contact:dominique.lefevre@mio.osupytheas.fr, maurice.libes@osupytheas.fr, didier.mallarino@osupytheas.fr
Project:EMSO http://www.emso-fr.org/EMSO-France
Depth: 2436.0 m
Title:EMSO Ligure Ouest : Data MII capteur MICROCAT
DateTime_Computer,Latitude,Longitude,Temperature,Conductivity,Pressure,DateTime_Instrument
DateTime_Computer,Latitude,Longitude,degC,S m-1,dbar,DateTime_Instrument
2020-11-19T00:02:33Z,42.805,6.029,13.2969,4.59980,2470.264,2020-11-19T02:03:30Z
2020-11-19T00:05:36Z,42.805,6.029,13.2977,4.59983,2470.264,2020-11-19T02:06:33Z
2020-11-19T00:08:39Z,42.805,6.029,13.2973,4.59991,2470.264,2020-11-19T02:09:36Z
2020-11-19T00:11:42Z,42.805,6.029,13.2971,4.59993,2470.25,2020-11-19T02:12:39Z
2020-11-19T00:14:45Z,42.805,6.029,13.2970,4.59992,2470.227,2020-11-19T02:15:42Z
2020-11-19T00:17:49Z,42.805,6.029,13.2971,4.59991,2470.227,2020-11-19T02:18:45Z
2020-11-19T00:20:52Z,42.805,6.029,13.2974,4.59993,2470.25,2020-11-19T02:21:48Z
2020-11-19T00:23:55Z,42.805,6.029,13.2969,4.59994,2470.24,2020-11-19T02:24:52Z
2020-11-19T00:26:58Z,42.805,6.029,13.2974,4.59986,2470.264,2020-11-19T02:27:55Z
2020-11-19T00:30:01Z,42.805,6.029,13.2973,4.59988,2470.217,2020-11-19T02:30:58Z
2020-11-19T00:33:04Z,42.805,6.029,13.2973,4.59991,2470.227,2020-11-19T02:34:01Z
2020-11-19T00:36:07Z,42.805,6.029,13.2974,4.59993,2470.227,2020-11-19T02:37:04Z
2020-11-19T00:39:10Z,42.805,6.029,13.2986,4.59991,2470.217,2020-11-19T02:40:07Z
2020-11-19T00:42:14Z,42.805,6.029,13.2975,4.60006,2470.227,2020-11-19T02:43:10Z
2020-11-19T00:45:17Z,42.805,6.029,13.2976,4.60053,2470.217,2020-11-19T02:46:13Z
2020-11-19T00:48:20Z,42.805,6.029,13.2974,4.59991,2470.217,2020-11-19T02:49:17Z
2020-11-19T00:51:23Z,42.805,6.029,13.2973,4.60000,2470.203,2020-11-19T02:52:20Z
2020-11-19T00:54:26Z,42.805,6.029,13.3034,4.59999,2470.227,2020-11-19T02:55:23Z
2020-11-19T00:57:29Z,42.805,6.029,13.2995,4.59997,2470.24,2020-11-19T02:58:26Z
2020-11-19T01:00:32Z,42.805,6.029,13.2995,4.59988,2470.203,2020-11-19T03:01:29Z
2020-11-19T01:03:35Z,42.805,6.029,13.3002,4.60018,2470.227,2020-11-19T03:04:32Z
2020-11-19T01:06:39Z,42.805,6.029,13.3012,4.60020,2470.227,2020-11-19T03:07:35Z
2020-11-19T01:09:42Z,42.805,6.029,13.3019,4.60054,2470.217,2020-11-19T03:10:38Z
2020-11-19T01:12:45Z,42.805,6.029,13.3012,4.60048,2470.203,2020-11-19T03:13:42Z
2020-11-19T01:15:48Z,42.805,6.029,13.3025,4.60047,2470.227,2020-11-19T03:16:45Z
2020-11-19T01:18:51Z,42.805,6.029,13.3026,4.60029,2470.217,2020-11-19T03:19:48Z
2020-11-19T01:21:54Z,42.805,6.029,13.3019,4.60029,2470.217,2020-11-19T03:22:51Z
2020-11-19T01:24:57Z,42.805,6.029,13.3042,4.60022,2470.217,2020-11-19T03:25:54Z
2020-11-19T01:28:00Z,42.805,6.029,13.3032,4.60030,2470.18,2020-11-19T03:28:57Z
2020-11-19T01:31:03Z,42.805,6.029,13.3002,4.60059,2470.18,2020-11-19T03:32:00Z
2020-11-19T01:34:07Z,42.805,6.029,13.3009,4.60060,2470.203,2020-11-19T03:35:03Z
2020-11-19T01:37:10Z,42.805,6.029,13.3014,4.60056,2470.203,2020-11-19T03:38:07Z
2020-11-19T01:40:13Z,42.805,6.029,13.3012,4.60052,2470.18,2020-11-19T03:41:10Z
2020-11-19T01:43:16Z,42.805,6.029,13.3026,4.60049,2470.217,2020-11-19T03:44:13Z
2020-11-19T01:46:19Z,42.805,6.029,13.3021,4.60073,2470.18,2020-11-19T03:47:16Z
2020-11-19T01:49:22Z,42.805,6.029,13.3031,4.60052,2470.18,2020-11-19T03:50:19Z
2020-11-19T01:52:25Z,42.805,6.029,13.3045,4.60021,2470.194,2020-11-19T03:53:22Z
2020-11-19T01:55:28Z,42.805,6.029,13.3034,4.60017,2470.156,2020-11-19T03:56:25Z
2020-11-19T01:58:32Z,42.805,6.029,13.3000,4.60031,2470.18,2020-11-19T03:59:28Z
2020-11-19T02:01:35Z,42.805,6.029,13.3027,4.60052,2470.194,2020-11-19T04:02:32Z
2020-11-19T02:04:38Z,42.805,6.029,13.3028,4.60036,2470.194,2020-11-19T04:05:35Z
2020-11-19T02:07:41Z,42.805,6.029,13.3034,4.60044,2470.194,2020-11-19T04:08:38Z
2020-11-19T02:10:44Z,42.805,6.029,13.3026,4.60023,2470.171,2020-11-19T04:11:41Z
2020-11-19T02:13:47Z,42.805,6.029,13.3024,4.60014,2470.147,2020-11-19T04:14:44Z
2020-11-19T02:16:50Z,42.805,6.029,13.3044,4.60003,2470.18,2020-11-19T04:17:47Z
2020-11-19T02:19:53Z,42.805,6.029,13.3018,4.59995,2470.133,2020-11-19T04:20:50Z
2020-11-19T02:22:57Z,42.805,6.029,13.3005,4.60041,2470.171,2020-11-19T04:23:53Z
2020-11-19T02:26:00Z,42.805,6.029,13.3020,4.60016,2470.18,2020-11-19T04:26:56Z
2020-11-19T02:29:03Z,42.805,6.029,13.3026,4.60079,2470.18,2020-11-19T04:30:00Z
2020-11-19T02:32:06Z,42.805,6.029,13.3025,4.60049,2470.171,2020-11-19T04:33:03Z
2020-11-19T02:35:09Z,42.805,6.029,13.3034,4.60024,2470.194,2020-11-19T04:36:06Z
2020-11-19T02:38:12Z,42.805,6.029,13.3039,4.59991,2470.194,2020-11-19T04:39:09Z
2020-11-19T02:41:15Z,42.805,6.029,13.3031,4.59991,2470.156,2020-11-19T04:42:12Z
2020-11-19T02:44:18Z,42.805,6.029,13.3019,4.59988,2470.194,2020-11-19T04:45:15Z
2020-11-19T02:47:22Z,42.805,6.029,13.3002,4.59991,2470.18,2020-11-19T04:48:18Z
2020-11-19T02:50:25Z,42.805,6.029,13.3020,4.59991,2470.194,2020-11-19T04:51:21Z
2020-11-19T02:53:28Z,42.805,6.029,13.3022,4.59987,2470.166,2020-11-19T04:54:25Z
2020-11-19T02:56:31Z,42.805,6.029,13.3011,4.59988,2470.194,2020-11-19T04:57:28Z
2020-11-19T02:59:34Z,42.805,6.029,13.3021,4.60001,2470.171,2020-11-19T05:00:31Z
2020-11-19T03:02:37Z,42.805,6.029,13.3039,4.60028,2470.156,2020-11-19T05:03:34Z
2020-11-19T03:05:40Z,42.805,6.029,13.3029,4.60009,2470.217,2020-11-19T05:06:37Z
2020-11-19T03:08:43Z,42.805,6.029,13.3024,4.60000,2470.171,2020-11-19T05:09:40Z
2020-11-19T03:11:46Z,42.805,6.029,13.3033,4.59999,2470.18,2020-11-19T05:12:43Z
2020-11-19T03:14:50Z,42.805,6.029,13.3032,4.60026,2470.156,2020-11-19T05:15:46Z
2020-11-19T03:17:53Z,42.805,6.029,13.3043,4.60016,2470.171,2020-11-19T05:18:50Z
2020-11-19T03:20:56Z,42.805,6.029,13.3052,4.60001,2470.171,2020-11-19T05:21:53Z
2020-11-19T03:23:59Z,42.805,6.029,13.3059,4.59994,2470.18,2020-11-19T05:24:56Z
2020-11-19T03:27:02Z,42.805,6.029,13.3060,4.60015,2470.156,2020-11-19T05:27:59Z
2020-11-19T03:30:05Z,42.805,6.029,13.3065,4.60001,2470.171,2020-11-19T05:31:02Z
2020-11-19T03:33:08Z,42.805,6.029,13.3069,4.60009,2470.171,2020-11-19T05:34:05Z
2020-11-19T03:36:11Z,42.805,6.029,13.3065,4.60009,2470.133,2020-11-19T05:37:08Z
2020-11-19T03:39:15Z,42.805,6.029,13.3064,4.59993,2470.171,2020-11-19T05:40:11Z
2020-11-19T03:42:18Z,42.805,6.029,13.3069,4.60009,2470.18,2020-11-19T05:43:15Z
2020-11-19T03:45:21Z,42.805,6.029,13.3076,4.60000,2470.147,2020-11-19T05:46:18Z
2020-11-19T03:48:24Z,42.805,6.029,13.3070,4.59999,2470.156,2020-11-19T05:49:21Z
2020-11-19T03:51:27Z,42.805,6.029,13.3046,4.60004,2470.171,2020-11-19T05:52:24Z
2020-11-19T03:54:30Z,42.805,6.029,13.3054,4.60009,2470.156,2020-11-19T05:55:27Z
2020-11-19T03:57:33Z,42.805,6.029,13.3048,4.60006,2470.194,2020-11-19T05:58:30Z
2020-11-19T04:00:36Z,42.805,6.029,13.3041,4.60006,2470.171,2020-11-19T06:01:33Z
2020-11-19T04:03:40Z,42.805,6.029,13.3034,4.60009,2470.18,2020-11-19T06:04:36Z
2020-11-19T04:06:43Z,42.805,6.029,13.3029,4.60021,2470.171,2020-11-19T06:07:39Z
2020-11-19T04:09:46Z,42.805,6.029,13.3020,4.60026,2470.156,2020-11-19T06:10:43Z
2020-11-19T04:12:49Z,42.805,6.029,13.3022,4.60026,2470.147,2020-11-19T06:13:46Z
2020-11-19T04:15:52Z,42.805,6.029,13.3032,4.60017,2470.171,2020-11-19T06:16:49Z
2020-11-19T04:18:55Z,42.805,6.029,13.3032,4.60016,2470.156,2020-11-19T06:19:52Z
2020-11-19T04:21:58Z,42.805,6.029,13.3019,4.60019,2470.11,2020-11-19T06:22:55Z
2020-11-19T04:25:01Z,42.805,6.029,13.2993,4.60029,2470.147,2020-11-19T06:25:58Z
2020-11-19T04:28:05Z,42.805,6.029,13.3003,4.60046,2470.171,2020-11-19T06:29:01Z
2020-11-19T04:31:08Z,42.805,6.029,13.3038,4.60044,2470.171,2020-11-19T06:32:04Z
2020-11-19T04:34:11Z,42.805,6.029,13.3063,4.60046,2470.171,2020-11-19T06:35:08Z
2020-11-19T04:37:14Z,42.805,6.029,13.3069,4.60033,2470.161,2020-11-19T06:38:11Z
2020-11-19T04:40:17Z,42.805,6.029,13.3069,4.60064,2470.156,2020-11-19T06:41:14Z
2020-11-19T04:43:20Z,42.805,6.029,13.2989,4.60073,2470.147,2020-11-19T06:44:17Z
2020-11-19T04:46:23Z,42.805,6.029,13.3011,4.60064,2470.133,2020-11-19T06:47:20Z
2020-11-19T04:49:26Z,42.805,6.029,13.3056,4.60064,2470.133,2020-11-19T06:50:23Z
2020-11-19T04:52:30Z,42.805,6.029,13.3049,4.60057,2470.147,2020-11-19T06:53:26Z
2020-11-19T04:55:33Z,42.805,6.029,13.2992,4.60067,2470.156,2020-11-19T06:56:29Z
2020-11-19T04:58:36Z,42.805,6.029,13.2983,4.60067,2470.147,2020-11-19T06:59:33Z
2020-11-19T05:01:39Z,42.805,6.029,13.2999,4.60072,2470.11,2020-11-19T07:02:36Z
2020-11-19T05:04:42Z,42.805,6.029,13.3051,4.60022,2470.171,2020-11-19T07:05:39Z
2020-11-19T05:07:45Z,42.805,6.029,13.3028,4.60045,2470.147,2020-11-19T07:08:42Z
2020-11-19T05:10:48Z,42.805,6.029,13.3051,4.60067,2470.147,2020-11-19T07:11:45Z
2020-11-19T05:13:51Z,42.805,6.029,13.2996,4.60050,2470.18,2020-11-19T07:14:48Z
2020-11-19T05:16:54Z,42.805,6.029,13.3016,4.60096,2470.171,2020-11-19T07:17:51Z
2020-11-19T05:19:58Z,42.805,6.029,13.2996,4.60114,2470.133,2020-11-19T07:20:54Z
2020-11-19T05:23:01Z,42.805,6.029,13.2976,4.60069,2470.156,2020-11-19T07:23:58Z
2020-11-19T05:26:04Z,42.805,6.029,13.2976,4.60052,2470.194,2020-11-19T07:27:01Z
2020-11-19T05:29:07Z,42.805,6.029,13.2977,4.60062,2470.171,2020-11-19T07:30:04Z
2020-11-19T05:32:10Z,42.805,6.029,13.2976,4.60076,2470.156,2020-11-19T07:33:07Z
2020-11-19T05:35:13Z,42.805,6.029,13.2976,4.60072,2470.156,2020-11-19T07:36:10Z
2020-11-19T05:38:16Z,42.805,6.029,13.2977,4.60072,2470.171,2020-11-19T07:39:13Z
2020-11-19T05:41:19Z,42.805,6.029,13.2971,4.60102,2470.203,2020-11-19T07:42:16Z
2020-11-19T05:44:23Z,42.805,6.029,13.2976,4.60069,2470.18,2020-11-19T07:45:19Z
2020-11-19T05:47:26Z,42.805,6.029,13.2976,4.60049,2470.171,2020-11-19T07:48:23Z
2020-11-19T05:50:29Z,42.805,6.029,13.2975,4.60086,2470.194,2020-11-19T07:51:26Z
2020-11-19T05:53:32Z,42.805,6.029,13.2975,4.60084,2470.194,2020-11-19T07:54:29Z
2020-11-19T05:56:35Z,42.805,6.029,13.2973,4.60079,2470.18,2020-11-19T07:57:32Z
2020-11-19T05:59:38Z,42.805,6.029,13.2972,4.60067,2470.217,2020-11-19T08:00:35Z
2020-11-19T06:02:41Z,42.805,6.029,13.2977,4.60084,2470.203,2020-11-19T08:03:38Z
2020-11-19T06:05:44Z,42.805,6.029,13.2975,4.60056,2470.203,2020-11-19T08:06:41Z
2020-11-19T06:08:48Z,42.805,6.029,13.2979,4.60078,2470.217,2020-11-19T08:09:44Z
2020-11-19T06:11:51Z,42.805,6.029,13.2976,4.60122,2470.203,2020-11-19T08:12:47Z
2020-11-19T06:14:54Z,42.805,6.029,13.2975,4.60112,2470.18,2020-11-19T08:15:51Z
2020-11-19T06:17:57Z,42.805,6.029,13.2971,4.60108,2470.24,2020-11-19T08:18:54Z
2020-11-19T06:21:00Z,42.805,6.029,13.2976,4.60105,2470.203,2020-11-19T08:21:57Z
2020-11-19T06:24:03Z,42.805,6.029,13.2975,4.60074,2470.227,2020-11-19T08:25:00Z
2020-11-19T06:27:06Z,42.805,6.029,13.2977,4.60092,2470.264,2020-11-19T08:28:03Z
2020-11-19T06:30:09Z,42.805,6.029,13.2976,4.60052,2470.227,2020-11-19T08:31:06Z
2020-11-19T06:33:12Z,42.805,6.029,13.2975,4.60050,2470.24,2020-11-19T08:34:09Z
2020-11-19T06:36:16Z,42.805,6.029,13.2974,4.60055,2470.217,2020-11-19T08:37:12Z
2020-11-19T06:39:19Z,42.805,6.029,13.2974,4.60082,2470.24,2020-11-19T08:40:16Z
2020-11-19T06:42:22Z,42.805,6.029,13.2973,4.60044,2470.227,2020-11-19T08:43:19Z
2020-11-19T06:45:25Z,42.805,6.029,13.2973,4.60005,2470.213,2020-11-19T08:46:22Z
2020-11-19T06:48:28Z,42.805,6.029,13.2973,4.60007,2470.25,2020-11-19T08:49:25Z
2020-11-19T06:51:31Z,42.805,6.029,13.2971,4.60015,2470.287,2020-11-19T08:52:28Z
2020-11-19T06:54:34Z,42.805,6.029,13.2971,4.60008,2470.273,2020-11-19T08:55:31Z
2020-11-19T06:57:37Z,42.805,6.029,13.2971,4.60008,2470.25,2020-11-19T08:58:34Z
2020-11-19T07:00:41Z,42.805,6.029,13.2971,4.60003,2470.297,2020-11-19T09:01:37Z
2020-11-19T07:03:44Z,42.805,6.029,13.2973,4.60001,2470.25,2020-11-19T09:04:41Z
2020-11-19T07:06:47Z,42.805,6.029,13.2972,4.60003,2470.273,2020-11-19T09:07:44Z
2020-11-19T07:09:50Z,42.805,6.029,13.2974,4.60001,2470.273,2020-11-19T09:10:47Z
2020-11-19T07:12:53Z,42.805,6.029,13.2971,4.60002,2470.31,2020-11-19T09:13:50Z
2020-11-19T07:15:56Z,42.805,6.029,13.2971,4.60000,2470.287,2020-11-19T09:16:53Z
2020-11-19T07:18:59Z,42.805,6.029,13.2969,4.60004,2470.273,2020-11-19T09:19:56Z
2020-11-19T07:22:02Z,42.805,6.029,13.2972,4.60007,2470.287,2020-11-19T09:22:59Z
2020-11-19T07:25:06Z,42.805,6.029,13.2974,4.60001,2470.297,2020-11-19T09:26:02Z
2020-11-19T07:28:09Z,42.805,6.029,13.2971,4.60007,2470.25,2020-11-19T09:29:06Z
2020-11-19T07:31:12Z,42.805,6.029,13.2972,4.60016,2470.297,2020-11-19T09:32:09Z
2020-11-19T07:34:15Z,42.805,6.029,13.2973,4.60006,2470.32,2020-11-19T09:35:12Z
2020-11-19T07:37:18Z,42.805,6.029,13.2967,4.60011,2470.297,2020-11-19T09:38:15Z
2020-11-19T07:40:21Z,42.805,6.029,13.2974,4.60022,2470.32,2020-11-19T09:41:18Z
2020-11-19T07:43:24Z,42.805,6.029,13.2972,4.60013,2470.297,2020-11-19T09:44:21Z
2020-11-19T07:46:27Z,42.805,6.029,13.2974,4.60015,2470.31,2020-11-19T09:47:24Z
2020-11-19T07:49:31Z,42.805,6.029,13.2973,4.60008,2470.334,2020-11-19T09:50:27Z
2020-11-19T07:52:34Z,42.805,6.029,13.2975,4.60010,2470.32,2020-11-19T09:53:30Z
2020-11-19T07:55:37Z,42.805,6.029,13.2972,4.60000,2470.297,2020-11-19T09:56:34Z
2020-11-19T07:58:40Z,42.805,6.029,13.2971,4.60005,2470.31,2020-11-19T09:59:37Z
2020-11-19T08:01:43Z,42.805,6.029,13.2974,4.60006,2470.357,2020-11-19T10:02:40Z
2020-11-19T08:04:46Z,42.805,6.029,13.2974,4.60000,2470.32,2020-11-19T10:05:43Z
2020-11-19T08:07:49Z,42.805,6.029,13.2974,4.59995,2470.297,2020-11-19T10:08:46Z
2020-11-19T08:10:52Z,42.805,6.029,13.2974,4.60006,2470.357,2020-11-19T10:11:49Z
2020-11-19T08:13:56Z,42.805,6.029,13.2975,4.60013,2470.357,2020-11-19T10:14:52Z
2020-11-19T08:16:59Z,42.805,6.029,13.2973,4.60003,2470.32,2020-11-19T10:17:56Z
2020-11-19T08:20:02Z,42.805,6.029,13.2973,4.59999,2470.343,2020-11-19T10:20:59Z
2020-11-19T08:23:05Z,42.805,6.029,13.2971,4.59997,2470.38,2020-11-19T10:24:02Z
2020-11-19T08:26:08Z,42.805,6.029,13.2971,4.60009,2470.32,2020-11-19T10:27:05Z
2020-11-19T08:29:11Z,42.805,6.029,13.2975,4.60002,2470.357,2020-11-19T10:30:08Z
2020-11-19T08:32:14Z,42.805,6.029,13.2975,4.59993,2470.366,2020-11-19T10:33:11Z
2020-11-19T08:35:17Z,42.805,6.029,13.2968,4.60004,2470.357,2020-11-19T10:36:14Z
2020-11-19T08:38:21Z,42.805,6.029,13.2979,4.60001,2470.32,2020-11-19T10:39:17Z
2020-11-19T08:41:24Z,42.805,6.029,13.2974,4.60000,2470.343,2020-11-19T10:42:21Z
2020-11-19T08:44:27Z,42.805,6.029,13.2976,4.60002,2470.366,2020-11-19T10:45:24Z
2020-11-19T08:47:30Z,42.805,6.029,13.2976,4.59998,2470.343,2020-11-19T10:48:27Z
2020-11-19T08:50:33Z,42.805,6.029,13.2976,4.59990,2470.366,2020-11-19T10:51:30Z
2020-11-19T08:53:36Z,42.805,6.029,13.2971,4.59992,2470.38,2020-11-19T10:54:33Z
2020-11-19T08:56:39Z,42.805,6.029,13.2976,4.59991,2470.357,2020-11-19T10:57:36Z
2020-11-19T08:59:42Z,42.805,6.029,13.2978,4.59993,2470.366,2020-11-19T11:00:39Z
2020-11-19T09:02:46Z,42.805,6.029,13.2974,4.59987,2470.38,2020-11-19T11:03:42Z
2020-11-19T09:05:49Z,42.805,6.029,13.2974,4.59999,2470.357,2020-11-19T11:06:46Z
2020-11-19T09:08:52Z,42.805,6.029,13.2971,4.59988,2470.38,2020-11-19T11:09:49Z
2020-11-19T09:11:55Z,42.805,6.029,13.2976,4.59987,2470.357,2020-11-19T11:12:52Z
2020-11-19T09:14:58Z,42.805,6.029,13.2974,4.59991,2470.38,2020-11-19T11:15:55Z
2020-11-19T09:18:01Z,42.805,6.029,13.2977,4.59989,2470.38,2020-11-19T11:18:58Z
2020-11-19T09:21:04Z,42.805,6.029,13.2973,4.59996,2470.366,2020-11-19T11:22:01Z
2020-11-19T09:24:07Z,42.805,6.029,13.2971,4.59991,2470.366,2020-11-19T11:25:04Z
2020-11-19T09:27:11Z,42.805,6.029,13.2974,4.59988,2470.343,2020-11-19T11:28:07Z
2020-11-19T09:30:14Z,42.805,6.029,13.2975,4.59989,2470.38,2020-11-19T11:31:11Z
2020-11-19T09:33:17Z,42.805,6.029,13.2977,4.59987,2470.366,2020-11-19T11:34:14Z
2020-11-19T09:36:20Z,42.805,6.029,13.2968,4.59995,2470.38,2020-11-19T11:37:17Z
2020-11-19T09:39:23Z,42.805,6.029,13.2974,4.59995,2470.366,2020-11-19T11:40:20Z
2020-11-19T09:42:26Z,42.805,6.029,13.2973,4.59994,2470.366,2020-11-19T11:43:23Z
2020-11-19T09:45:29Z,42.805,6.029,13.2978,4.59993,2470.39,2020-11-19T11:46:26Z
2020-11-19T09:48:33Z,42.805,6.029,13.2975,4.59989,2470.39,2020-11-19T11:49:29Z
2020-11-19T09:51:36Z,42.805,6.029,13.2970,4.59991,2470.404,2020-11-19T11:52:32Z
2020-11-19T09:54:39Z,42.805,6.029,13.2975,4.59991,2470.39,2020-11-19T11:55:36Z
2020-11-19T09:57:42Z,42.805,6.029,13.2971,4.59991,2470.404,2020-11-19T11:58:39Z
2020-11-19T10:00:45Z,42.805,6.029,13.2979,4.59990,2470.39,2020-11-19T12:01:42Z
2020-11-19T10:03:48Z,42.805,6.029,13.2974,4.59989,2470.39,2020-11-19T12:04:45Z
2020-11-19T10:06:51Z,42.805,6.029,13.2975,4.59991,2470.427,2020-11-19T12:07:48Z
2020-11-19T10:09:54Z,42.805,6.029,13.2975,4.59988,2470.366,2020-11-19T12:10:51Z
2020-11-19T10:12:58Z,42.805,6.029,13.2976,4.59986,2470.39,2020-11-19T12:13:54Z
2020-11-19T10:16:01Z,42.805,6.029,13.2972,4.59987,2470.404,2020-11-19T12:16:57Z
2020-11-19T10:19:04Z,42.805,6.029,13.2972,4.59990,2470.38,2020-11-19T12:20:01Z
2020-11-19T10:22:07Z,42.805,6.029,13.2974,4.59994,2470.427,2020-11-19T12:23:04Z
2020-11-19T10:25:10Z,42.805,6.029,13.2977,4.59992,2470.39,2020-11-19T12:26:07Z
2020-11-19T10:28:13Z,42.805,6.029,13.2974,4.59990,2470.404,2020-11-19T12:29:10Z
2020-11-19T10:31:16Z,42.805,6.029,13.2971,4.59990,2470.404,2020-11-19T12:32:13Z
2020-11-19T10:34:19Z,42.805,6.029,13.2976,4.59983,2470.404,2020-11-19T12:35:16Z
2020-11-19T10:37:23Z,42.805,6.029,13.2975,4.59991,2470.366,2020-11-19T12:38:19Z
2020-11-19T10:40:26Z,42.805,6.029,13.2975,4.59985,2470.39,2020-11-19T12:41:23Z
2020-11-19T10:43:29Z,42.805,6.029,13.2974,4.59983,2470.38,2020-11-19T12:44:26Z
2020-11-19T10:46:32Z,42.805,6.029,13.2974,4.59982,2470.38,2020-11-19T12:47:29Z
2020-11-19T10:49:35Z,42.805,6.029,13.2976,4.59991,2470.39,2020-11-19T12:50:32Z
2020-11-19T10:52:38Z,42.805,6.029,13.2974,4.59985,2470.39,2020-11-19T12:53:35Z
2020-11-19T10:55:41Z,42.805,6.029,13.2976,4.59986,2470.38,2020-11-19T12:56:38Z
2020-11-19T10:58:44Z,42.805,6.029,13.2977,4.59988,2470.39,2020-11-19T12:59:41Z
2020-11-19T11:01:48Z,42.805,6.029,13.2972,4.59983,2470.38,2020-11-19T13:02:44Z
2020-11-19T11:04:51Z,42.805,6.029,13.2976,4.59983,2470.357,2020-11-19T13:05:48Z
2020-11-19T11:07:54Z,42.805,6.029,13.2976,4.59986,2470.343,2020-11-19T13:08:51Z
2020-11-19T11:10:57Z,42.805,6.029,13.2974,4.59987,2470.38,2020-11-19T13:11:54Z
2020-11-19T11:14:00Z,42.805,6.029,13.2975,4.59982,2470.366,2020-11-19T13:14:57Z
2020-11-19T11:17:03Z,42.805,6.029,13.2976,4.59981,2470.357,2020-11-19T13:18:00Z
2020-11-19T11:20:06Z,42.805,6.029,13.2976,4.59981,2470.366,2020-11-19T13:21:03Z
2020-11-19T11:23:09Z,42.805,6.029,13.2975,4.59986,2470.366,2020-11-19T13:24:06Z
2020-11-19T11:26:13Z,42.805,6.029,13.2968,4.59980,2470.343,2020-11-19T13:27:09Z
2020-11-19T11:29:16Z,42.805,6.029,13.2973,4.59985,2470.343,2020-11-19T13:30:13Z
2020-11-19T11:32:19Z,42.805,6.029,13.2974,4.59983,2470.33,2020-11-19T13:33:16Z
2020-11-19T11:35:22Z,42.805,6.029,13.2975,4.59981,2470.38,2020-11-19T13:36:19Z
2020-11-19T11:38:25Z,42.805,6.029,13.2974,4.59988,2470.343,2020-11-19T13:39:22Z
2020-11-19T11:41:28Z,42.805,6.029,13.2978,4.59983,2470.366,2020-11-19T13:42:25Z
2020-11-19T11:44:31Z,42.805,6.029,13.2974,4.59980,2470.357,2020-11-19T13:45:28Z
2020-11-19T11:47:35Z,42.805,6.029,13.2973,4.59980,2470.33,2020-11-19T13:48:31Z
2020-11-19T11:50:38Z,42.805,6.029,13.2974,4.59983,2470.334,2020-11-19T13:51:34Z
2020-11-19T11:53:41Z,42.805,6.029,13.2974,4.59983,2470.32,2020-11-19T13:54:38Z
2020-11-19T11:56:44Z,42.805,6.029,13.2975,4.59982,2470.334,2020-11-19T13:57:41Z
2020-11-19T11:59:47Z,42.805,6.029,13.2974,4.59983,2470.32,2020-11-19T14:00:44Z
2020-11-19T12:02:50Z,42.805,6.029,13.2972,4.59983,2470.32,2020-11-19T14:03:47Z
2020-11-19T12:05:53Z,42.805,6.029,13.2975,4.59982,2470.357,2020-11-19T14:06:50Z
2020-11-19T12:08:56Z,42.805,6.029,13.2976,4.59981,2470.343,2020-11-19T14:09:53Z
2020-11-19T12:12:00Z,42.805,6.029,13.2971,4.59988,2470.32,2020-11-19T14:12:56Z
2020-11-19T12:15:03Z,42.805,6.029,13.2974,4.59979,2470.32,2020-11-19T14:15:59Z
2020-11-19T12:18:06Z,42.805,6.029,13.2975,4.59981,2470.32,2020-11-19T14:19:03Z
2020-11-19T12:21:09Z,42.805,6.029,13.2976,4.59979,2470.343,2020-11-19T14:22:06Z
2020-11-19T12:24:12Z,42.805,6.029,13.2971,4.59981,2470.32,2020-11-19T14:25:09Z
2020-11-19T12:27:15Z,42.805,6.029,13.2971,4.59979,2470.343,2020-11-19T14:28:12Z
2020-11-19T12:30:18Z,42.805,6.029,13.2972,4.59979,2470.32,2020-11-19T14:31:15Z
2020-11-19T12:33:21Z,42.805,6.029,13.2976,4.59981,2470.31,2020-11-19T14:34:18Z
2020-11-19T12:36:25Z,42.805,6.029,13.2972,4.59981,2470.297,2020-11-19T14:37:21Z
2020-11-19T12:39:28Z,42.805,6.029,13.2972,4.59979,2470.31,2020-11-19T14:40:24Z
2020-11-19T12:42:31Z,42.805,6.029,13.2974,4.59980,2470.297,2020-11-19T14:43:28Z
2020-11-19T12:45:34Z,42.805,6.029,13.2971,4.59982,2470.31,2020-11-19T14:46:31Z
2020-11-19T12:48:37Z,42.805,6.029,13.2975,4.59980,2470.297,2020-11-19T14:49:34Z
2020-11-19T12:51:40Z,42.805,6.029,13.2973,4.59981,2470.32,2020-11-19T14:52:37Z
2020-11-19T12:54:43Z,42.805,6.029,13.2973,4.59980,2470.297,2020-11-19T14:55:40Z
2020-11-19T12:57:46Z,42.805,6.029,13.2975,4.59978,2470.297,2020-11-19T14:58:43Z
2020-11-19T13:00:50Z,42.805,6.029,13.2976,4.59981,2470.31,2020-11-19T15:01:46Z
2020-11-19T13:03:53Z,42.805,6.029,13.2973,4.59979,2470.31,2020-11-19T15:04:49Z
2020-11-19T13:06:56Z,42.805,6.029,13.2972,4.59980,2470.297,2020-11-19T15:07:53Z
2020-11-19T13:09:59Z,42.805,6.029,13.2973,4.59983,2470.297,2020-11-19T15:10:56Z
2020-11-19T13:13:02Z,42.805,6.029,13.2971,4.59978,2470.297,2020-11-19T15:13:59Z
2020-11-19T13:16:05Z,42.805,6.029,13.2974,4.59981,2470.31,2020-11-19T15:17:02Z
2020-11-19T13:19:08Z,42.805,6.029,13.2972,4.59986,2470.273,2020-11-19T15:20:05Z
2020-11-19T13:22:11Z,42.805,6.029,13.2974,4.59981,2470.25,2020-11-19T15:23:08Z
2020-11-19T13:25:15Z,42.805,6.029,13.2979,4.59980,2470.273,2020-11-19T15:26:11Z
2020-11-19T13:28:18Z,42.805,6.029,13.2976,4.59981,2470.273,2020-11-19T15:29:15Z
2020-11-19T13:31:21Z,42.805,6.029,13.2976,4.59982,2470.287,2020-11-19T15:32:18Z
2020-11-19T13:34:24Z,42.805,6.029,13.2981,4.59983,2470.287,2020-11-19T15:35:21Z
2020-11-19T13:37:27Z,42.805,6.029,13.2976,4.59981,2470.273,2020-11-19T15:38:24Z
2020-11-19T13:40:30Z,42.805,6.029,13.2973,4.59980,2470.287,2020-11-19T15:41:27Z
2020-11-19T13:43:33Z,42.805,6.029,13.2971,4.59981,2470.297,2020-11-19T15:44:30Z
2020-11-19T13:46:36Z,42.805,6.029,13.2979,4.59980,2470.297,2020-11-19T15:47:33Z
2020-11-19T13:49:40Z,42.805,6.029,13.2974,4.59981,2470.297,2020-11-19T15:50:36Z
2020-11-19T13:52:43Z,42.805,6.029,13.2974,4.59982,2470.25,2020-11-19T15:53:40Z
2020-11-19T13:55:46Z,42.805,6.029,13.2975,4.59978,2470.273,2020-11-19T15:56:43Z
2020-11-19T13:58:49Z,42.805,6.029,13.2974,4.59980,2470.273,2020-11-19T15:59:46Z
2020-11-19T14:01:52Z,42.805,6.029,13.2974,4.59978,2470.26,2020-11-19T16:02:49Z
2020-11-19T14:04:55Z,42.805,6.029,13.2973,4.59978,2470.25,2020-11-19T16:05:52Z
2020-11-19T14:07:58Z,42.805,6.029,13.2974,4.59978,2470.24,2020-11-19T16:08:55Z
2020-11-19T14:11:02Z,42.805,6.029,13.2976,4.59981,2470.25,2020-11-19T16:11:58Z
2020-11-19T14:14:05Z,42.805,6.029,13.2976,4.59983,2470.273,2020-11-19T16:15:02Z
2020-11-19T14:17:08Z,42.805,6.029,13.2976,4.59991,2470.25,2020-11-19T16:18:05Z
2020-11-19T14:20:11Z,42.805,6.029,13.2971,4.59983,2470.264,2020-11-19T16:21:08Z
2020-11-19T14:23:14Z,42.805,6.029,13.2976,4.59979,2470.25,2020-11-19T16:24:11Z
2020-11-19T14:26:17Z,42.805,6.029,13.2973,4.59978,2470.227,2020-11-19T16:27:14Z
2020-11-19T14:29:20Z,42.805,6.029,13.2974,4.59978,2470.287,2020-11-19T16:30:17Z
2020-11-19T14:32:23Z,42.805,6.029,13.2973,4.59978,2470.264,2020-11-19T16:33:20Z
2020-11-19T14:35:27Z,42.805,6.029,13.2976,4.59978,2470.25,2020-11-19T16:36:23Z
2020-11-19T14:38:30Z,42.805,6.029,13.2974,4.59981,2470.227,2020-11-19T16:39:27Z
2020-11-19T14:41:33Z,42.805,6.029,13.2978,4.59980,2470.227,2020-11-19T16:42:30Z
2020-11-19T14:44:36Z,42.805,6.029,13.2975,4.59978,2470.24,2020-11-19T16:45:33Z
2020-11-19T14:47:39Z,42.805,6.029,13.2976,4.59976,2470.217,2020-11-19T16:48:36Z
2020-11-19T14:50:42Z,42.805,6.029,13.2974,4.59976,2470.264,2020-11-19T16:51:39Z
2020-11-19T14:53:45Z,42.805,6.029,13.2974,4.59976,2470.227,2020-11-19T16:54:42Z
2020-11-19T14:56:48Z,42.805,6.029,13.2975,4.59978,2470.24,2020-11-19T16:57:45Z
2020-11-19T14:59:52Z,42.805,6.029,13.2969,4.59978,2470.203,2020-11-19T17:00:48Z
2020-11-19T15:02:55Z,42.805,6.029,13.2973,4.59978,2470.203,2020-11-19T17:03:52Z